Weather History for Marathon, FL

Change the Weather History Date:

Thursday, June 27, 2013

  Actual Average Record
Temperature  
Mean Temperature 88 °F 85 °F  
Max Temperature 92 °F 91 °F 94 °F (2011)
Min Temperature 84 °F 79 °F 73 °F (2003)
Degree Days  
Heating Degree Days 0 0  
Month to date heating degree days 0 0  
Since 1 June heating degree days 0 0  
Since 1 July heating degree days 36 81  
Cooling Degree Days 23 20  
Month to date cooling degree days 548 535  
Year to date cooling degree days 2378 2078  
Since 1 June cooling degree days 548 535  
Growing Degree Days 38 (Base 50)    
Moisture  
Dew Point 73 °F    
Average Humidity 65    
Maximum Humidity 70    
Minimum Humidity 59    
Precipitation  
Precipitation 0.00 in 0.21 in 0.44 in (2003)
Month to date precipitation 9.23 5.03  
Year to date precipitation 28.99 16.97  
Snow  
Snow 0.00 in - - ()
Month to date snowfall 0.0  
Since 1 June snowfall 0.0  
Since 1 July snowfall 0.0  
Snow Depth 0.00 in    
Sea Level Pressure  
Sea Level Pressure 30.01 in    
Wind  
Wind Speed 6 mph (ESE)    
Max Wind Speed 14 mph    
Max Gust Speed 21 mph    
Visibility 10 miles    
Events Thunderstorm    
T = Trace of Precipitation, MM = Missing Value Source: NWS Daily Summary

Daily Weather History Graph

Daily Weather History Graph

Search for Another Location

Airport:

Trip Planner

Search our weather history database for the weather conditions in past years. The results will help you decide how hot, cold, wet, or windy it might be!

Date:

Astronomy

Jun. 27, 2013 Rise Set
Actual Time 6:37 AM EDT 8:17 PM EDT
Civil Twilight 6:11 AM EDT 8:42 PM EDT
Nautical Twilight 5:40 AM EDT 9:13 PM EDT
Astronomical Twilight 5:08 AM EDT 9:45 PM EDT
Moon 11:48 PM EDT (6/27) 11:05 AM EDT (6/27)
Length of Visible Light 14h 31m
Length of Day
13h 39m
Waning Gibbous, 76% of the Moon is Illuminated
Jun 27
Waning Gibbous
Jun 30
Last Quarter
Jul 8
New
Jul 15
First Quarter
Jul 22
Full

Hourly Weather History & Observations

Time (EDT) Temp. Heat Index Dew Point Humidity Pressure Visibility Wind Dir Wind Speed Gust Speed Precip Events Conditions
12:53 AM 84.9 °F 90.7 °F 72.0 °F 65% 30.01 in 10.0 mi SE 8.1 mph - N/A   Clear
1:53 AM 84.9 °F 91.4 °F 73.0 °F 67% 30.00 in 10.0 mi SSE 6.9 mph - N/A   Clear
2:53 AM 84.9 °F 91.4 °F 73.0 °F 67% 30.00 in 10.0 mi SSE 5.8 mph - N/A   Partly Cloudy
3:53 AM 84.9 °F 90.7 °F 72.0 °F 65% 29.99 in 10.0 mi SE 8.1 mph - N/A   Partly Cloudy
4:53 AM 84.9 °F 90.7 °F 72.0 °F 65% 29.99 in 10.0 mi SE 5.8 mph - N/A   Partly Cloudy
5:53 AM 84.0 °F 91.2 °F 73.9 °F 72% 29.99 in 10.0 mi SE 4.6 mph - N/A   Partly Cloudy
6:53 AM 84.0 °F 90.2 °F 73.0 °F 69% 30.01 in 10.0 mi East 3.5 mph - N/A   Mostly Cloudy
7:08 AM 84.2 °F 90.9 °F 73.4 °F 70% 30.01 in 10.0 mi East 3.5 mph - N/A   Scattered Clouds
7:53 AM 86.0 °F 93.8 °F 73.9 °F 67% 30.02 in 10.0 mi ESE 3.5 mph - N/A   Partly Cloudy
8:53 AM 88.0 °F 94.7 °F 72.0 °F 59% 30.03 in 10.0 mi Variable 3.5 mph - N/A   Clear
9:53 AM 90.0 °F 97.9 °F 73.0 °F 57% 30.03 in 10.0 mi ESE 4.6 mph - N/A   Clear
10:53 AM 90.0 °F 99.0 °F 73.9 °F 59% 30.04 in 10.0 mi SE 4.6 mph - N/A   Clear
11:19 AM 89.6 °F 99.8 °F 75.2 °F 62% 30.04 in 10.0 mi SE 5.8 mph - N/A   Mostly Cloudy
11:29 AM 91.4 °F 102.5 °F 75.2 °F 59% 30.04 in 10.0 mi ESE 6.9 mph - N/A   Mostly Cloudy
11:53 AM 91.0 °F 101.6 °F 75.0 °F 59% 30.04 in 10.0 mi SE 6.9 mph - N/A   Clear
12:53 PM 90.0 °F 97.9 °F 73.0 °F 57% 30.04 in 10.0 mi Variable 4.6 mph - N/A   Clear
1:25 PM 89.6 °F 98.2 °F 73.4 °F 59% 30.03 in 10.0 mi ESE 6.9 mph - N/A Thunderstorm Thunderstorm
1:53 PM 88.0 °F 96.5 °F 73.9 °F 63% 30.04 in 10.0 mi ESE 5.8 mph - N/A   Scattered Clouds
2:53 PM 87.1 °F 94.5 °F 73.0 °F 63% 30.02 in 10.0 mi East 4.6 mph - N/A   Scattered Clouds
3:53 PM 88.0 °F 93.8 °F 71.1 °F 57% 30.01 in 10.0 mi ENE 9.2 mph - N/A   Clear
4:53 PM 87.1 °F 92.8 °F 71.1 °F 59% 29.98 in 10.0 mi East 6.9 mph - N/A   Clear
5:53 PM 88.0 °F 93.8 °F 71.1 °F 57% 29.97 in 10.0 mi NE 8.1 mph - N/A   Clear
6:53 PM 87.1 °F 93.6 °F 72.0 °F 61% 29.98 in 10.0 mi NE 6.9 mph - N/A   Clear
7:53 PM 86.0 °F 93.0 °F 73.0 °F 65% 29.98 in 10.0 mi East 4.6 mph - N/A   Clear
8:53 PM 86.0 °F 93.0 °F 73.0 °F 65% 29.98 in 10.0 mi ENE 4.6 mph - N/A   Clear
9:53 PM 84.9 °F 91.4 °F 73.0 °F 67% 29.97 in 10.0 mi East 4.6 mph - N/A   Clear
10:53 PM 84.9 °F 91.4 °F 73.0 °F 67% 29.99 in 10.0 mi ESE 6.9 mph - N/A   Clear
11:53 PM 84.9 °F 90.7 °F 72.0 °F 65% 30.00 in 10.0 mi East 5.8 mph - N/A   Partly Cloudy